Regional Weather Roundup
Issued by NWS

Home | Current Version | Previous Version | Text Only | Print | Product List | Glossary On
Versions: 1 2 3 4 5 6 7 8 9 10 11 12 13 14 15 16 17 18 19 20 21 22 23 24 25 26 27 28 29 30 31 32 33 34 35 36 37 38 39 40 41 42 43 44 45 46 47 48 49 50
000
ASUS43 KOAX 210510
RWRNE

WEATHER ROUNDUP FOR NEBRASKA
NATIONAL WEATHER SERVICE OMAHA NE
1200 AM CDT WED APR 21 2021

NOTES: SATELLITE DATA IS BEING USED TO AUGMENT CLOUD COVER ABOVE
       12000 FEET.
       "FAIR" INDICATES FEW OR NO CLOUDS BELOW 12,000 FEET WITH NO
       SIGNIFICANT WEATHER AND/OR OBSTRUCTIONS TO VISIBILITY.


NEZ001>004-019>022-054>056-210600-
NEBRASKA PANHANDLE

CITY           SKY/WX    TMP DP  RH WIND       PRES   REMARKS
SCOTTSBLUFF    CLEAR     25  18  74 W5        30.28R WCI  19
ALLIANCE       FLURRIES  25  21  85 N8        30.27R WCI  16
CHADRON        CLOUDY    27  18  69 NW5       30.31R WCI  22
GORDON         CLOUDY    27  19  71 N9        30.27R WCI  17
KIMBALL        CLEAR     22  19  90 CALM      30.26R
SIDNEY         CLEAR     23  19  85 NW10      30.25R WCI  12
$$

NEZ057>060-069>072-079>082-210600-
SOUTHWEST NEBRASKA

CITY           SKY/WX    TMP DP  RH WIND       PRES   REMARKS
NORTH PLATTE   PTCLDY    30  23  75 N8        30.25R WCI  22
IMPERIAL       CLEAR     30  21  69 NW12      30.27R WCI  20
LEXINGTON      PTCLDY    29  23  78 NW8       30.25S WCI  21
MCCOOK         CLEAR     29  20  69 W9        30.26R WCI  20
OGALLALA       PTCLDY    30  26  83 N7        30.28R WCI  23
$$

NEZ005>010-023>029-035>040-094-210600-
NORTH CENTRAL NEBRASKA

CITY           SKY/WX    TMP DP  RH WIND       PRES   REMARKS
VALENTINE      FLURRIES  30  24  78 NW8       30.26R WCI  22
AINSWORTH      CLOUDY    29  25  84 N8        30.25R WCI  22
BROKEN BOW     CLOUDY    31  25  78 NW9       30.23R WCI  23
O`NEILL        PTCLDY    30  26  83 NW10      30.24R WCI  21
ORD            CLEAR     29  25  85 NW8       30.22R WCI  21
THEDFORD       PTCLDY    29  24  84 NW5       30.26R WCI  23
$$

NEZ041-046>049-061>064-073>077-083>087-210600-
SOUTH CENTRAL NEBRASKA

CITY           SKY/WX    TMP DP  RH WIND       PRES   REMARKS
GRAND ISLAND   CLEAR     30  23  75 NW6       30.24R WCI  24
AURORA         CLEAR     29  24  83 NW6       30.22S WCI  23
HASTINGS       CLEAR     30  25  81 W6        30.24R WCI  24
HEBRON         CLEAR     32  32  99 CALM      30.24S
HOLDREGE       CLEAR     31  24  74 NW6       30.24S WCI  25
KEARNEY        CLEAR     28  23  81 NW7       30.25R WCI  21
YORK           CLEAR     28  28 100 CALM      30.22S
$$

NEZ011>018-030>034-042>045-210600-
NORTHEAST NEBRASKA

CITY           SKY/WX    TMP DP  RH WIND       PRES   REMARKS
NORFOLK        PTCLDY    31  27  85 W8        30.20S WCI  23
ALBION         MOCLDY    27  24  90 NW6       30.21F WCI  20
BLAIR          CLOUDY    38 -17   9 NW6       30.17F WCI  33
COLUMBUS       CLEAR     29  27  92 W5        30.23R WCI  24
FREMONT        PTCLDY    36  30  77 W8        30.20R WCI  30
TEKAMAH        CLOUDY    40  24  53 NW12      30.19R WCI  33
WAYNE          CLOUDY    32  27  84 W9        30.19S WCI  24
$$

NEZ050>053-065>068-078-088>093-210600-
SOUTHEAST NEBRASKA

CITY           SKY/WX    TMP DP  RH WIND       PRES   REMARKS
LINCOLN        PTCLDY    36  30  79 NW8       30.23R WCI  30
OMAHA EPPLEY   CLOUDY    41  26  55 W9        30.18S
BEATRICE       CLOUDY    36  33  88 W7        30.21S WCI  30
FALLS CITY     MOCLDY    38  28  67 W8        30.20S WCI  32
NEBRASKA CITY  CLOUDY   N/A N/A N/A CALM      30.19S
PLATTSMOUTH    MOCLDY    40  28  63 W9        30.19R WCI  33
$$

NEZ044-045-051>053-067-210600-
OMAHA AREA

CITY           SKY/WX    TMP DP  RH WIND       PRES   REMARKS
OMAHA EPPLEY   CLOUDY    41  26  55 W9        30.18S
BLAIR          CLOUDY    38 -17   9 NW6       30.17F WCI  33
FREMONT        PTCLDY    36  30  77 W8        30.20R WCI  30
MILLARD        CLOUDY    41  29  61 NW7       30.19S
OFFUTT AFB     CLOUDY    41  27  56 NW8       30.19
PLATTSMOUTH    MOCLDY    40  28  63 W9        30.19R WCI  33
WAHOO          CLOUDY    37  32  81 W7        30.20S WCI  32
$$



USA.gov is the U.S. government's official web portal to all federal, state and local government web resources and services.